CAPE
760 811 593 441 627 782 687 728 938 1577 1777 1558 1567 1495 1274 993 687 662 711 438 160 35 150 315 407 631 559 486 647 847 700 655 559 461 459 643 944 722 833 1138 1218 1034 788
1455 1067 951 1226 1329 1168 1154 1241 1665 1674 2230 1904 1755 1407 1305 1150 766 591 503 346 139 210 539 550 569 311 504 885 649 706 789 753 685 624 520 628 708 580 862 885 898 645 668
778 608 838 1009 614 717 714 629 1150 1422 1703 1757 1496 1290 1226 1130 819 458 340 233 346 572 731 727 354 214 323 382 558 668 452 815 694 653 504 646 634 641 521 689 705 759 810
174 344 498 629 821 671 1113 678 38 272 387 518 681 821 839 948 875 697 463 340 364 325 825 1002 1045 923 964 751 712 880 509 438 624 551 537 517 748 671 578 336 499 635 544
28 170 233 420 681 930 777 726 648 581 590 635 728 884 944 973 1097 977 812 714 525 797 1345 1307 1271 1287 842 620 584 471 458 610 574 592 305 574 631 622 390 238 434 360 639
0 0 0 11 206 240 253 333 604 1026 958 654 813 958 904 1113 999 652 665 792 910 952 1024 1024 835 419 247 93 132 164 318 466 431 406 334 432 579 638 539 369 442 426 412
0 0 0 0 0 12 32 156 188 115 404 634 677 843 604 738 486 455 448 975 1029 850 693 574 330 305 325 474 554 355 254 169 234 423 400 441 495 674 637 586 605 636 535
0 0 0 0 0 0 0 0 11 66 237 239 386 650 745 613 250 1 27 457 791 851 722 599 566 549 588 466 245 138 257 397 396 394 376 417 670 735 817 679 627 792 685
0 0 1 3 2 1 0 0 1 17 43 158 342 401 535 508 308 42 20 281 370 383 467 467 306 189 161 105 287 284 303 136 358 291 96 71 79 104 260 393 438 576 380
4 5 3 5 10 7 7 7 5 4 7 46 144 359 553 516 453 128 50 200 266 299 334 457 216 41 85 73 89 288 442 225 196 406 206 86 6 24 12 122 338 625 314
1 4 4 4 1 1 8 10 16 15 16 1 27 61 116 227 371 181 122 184 303 226 94 84 101 135 39 20 36 45 78 449 158 237 213 96 196 86 86 66 202 422 592
0 0 0 0 0 2 1 2 6 15 18 16 2 14 40 64 109 117 60 23 116 355 257 172 94 34 44 0 24 4 2 33 135 176 270 231 128 49 9 111 78 215 564
3 6 2 1 1 1 1 0 1 2 22 2 14 16 3 21 34 15 19 8 0 11 211 346 133 1 0 0 0 0 0 24 44 215 270 271 239 87 23 57 76 150 243
2 2 2 3 1 1 1 1 3 3 4 13 4 4 26 35 43 46 43 48 10 0 0 26 13 0 11 27 39 74 51 241 346 380 327 265 227 103 84 49 74 74 99
2 3 3 3 2 2 2 2 2 2 2 1 5 13 8 2 11 58 43 99 316 300 48 63 122 216 219 210 231 177 272 304 138 120 165 200 325 207 111 94 81 83 53
2 4 4 3 2 2 2 3 1 0 0 0 0 0 7 12 2 0 2 1 0 0 21 141 307 296 289 291 235 264 318 166 90 24 86 155 200 258 226 134 95 44 42
2 3 3 3 3 4 3 3 2 0 0 0 0 0 0 0 0 0 0 0 0 0 1 101 307 283 345 277 168 122 186 176 455 327 438 220 133 183 284 247 141 65 67
2 1 2 2 3 4 4 3 3 2 1 0 4 1 16 0 0 0 0 0 0 0 2 82 116 176 132 79 84 87 175 166 190 134 384 197 217 214 288 339 224 132 56
1 1 3 2 2 2 3 4 3 4 5 4 2 2 1 0 0 0 0 0 2 0 0 0 11 33 37 69 152 193 256 261 315 160 200 267 394 462 341 307 383 120 10
1 1 1 2 2 2 2 3 4 4 4 4 4 5 3 1 3 34 9 0 9 1 0 2 17 48 57 94 214 235 141 137 142 144 142 151 112 296 464 482 397 257 14
1 2 1 2 1 2 2 2 3 3 4 3 4 2 1 4 5 4 3 2 2 1 2 23 17 53 96 96 99 59 30 27 40 95 146 252 186 184 348 451 441 357 196
0 0 0 1 1 1 2 2 2 3 3 3 3 2 1 4 4 5 6 6 6 5 4 3 2 26 92 108 112 109 77 46 67 86 140 204 173 159 70 130 294 93 83
0 0 0 0 0 0 0 1 2 2 3 2 3 3 3 4 3 4 4 4 2 3 4 5 4 5 3 2 1 40 131 199 146 140 123 145 227 265 190 152 169 168 190
0 0 0 0 0 0 0 0 0 0 0 0 1 1 1 1 5 5 5 4 3 2 2 2 5 6 6 6 5 3 3 1 0 0 80 336 234 296 238 208 183 317 216
0 0 0 0 0 0 0 0 0 0 0 0 0 0 0 0 0 0 2 6 5 5 3 3 3 4 5 4 2 2 0 0 1 3 2 1 182 340 292 208 240 361 316
0 0 0 0 0 0 0 0 0 0 0 0 0 0 0 0 0 0 0 0 0 0 1 5 4 5 5 4 2 2 0 0 2 5 6 4 1 43 356 459 320 356 404
CIN
-128 -109 -130 -149 -126 -114 -120 -121 -122 -87 -68 -65 -51 -62 -61 -89 -129 -107 -79 -81 -110 -157 -138 -80 -55 -24 -30 -41 -9 -0 -0 -1 -0 -18 -15 -26 -42 -45 -44 -54 -71 -89 -74
-68 -88 -97 -81 -86 -73 -66 -67 -58 -61 -33 -37 -40 -53 -52 -58 -96 -101 -102 -124 -165 -147 -73 -44 -29 -55 -39 -3 -18 -8 -0 -0 -0 -0 -9 -16 -37 -32 -43 -51 -51 -48 -59
-92 -62 -60 -54 -62 -61 -51 -46 -45 -43 -32 -35 -40 -44 -52 -53 -78 -141 -176 -190 -134 -75 -48 -32 -87 -92 -78 -42 -19 -8 -18 -0 -0 -0 -3 -2 -15 -17 -37 -55 -59 -56 -74
-205 -92 -69 -51 -57 -54 -44 -35 -35 -37 -40 -47 -53 -56 -63 -71 -83 -93 -134 -173 -146 -151 -28 -15 -6 -12 -12 -20 -3 -0 -16 -8 -0 -0 -0 -1 -1 -6 -21 -32 -31 -45 -50
-78 -184 -143 -95 -40 -48 -46 -50 -31 -26 -42 -50 -54 -54 -55 -64 -73 -69 -68 -73 -114 -54 -0 -1 -1 -3 -28 -38 -12 -7 -2 -0 -0 -0 -3 -0 -1 -0 -30 -40 -36 -27 -28
-0 -0 -0 -212 -176 -133 -102 -71 -53 -27 -25 -25 -34 -35 -38 -34 -51 -83 -82 -48 -28 -26 -12 -12 -27 -99 -149 -189 -182 -135 -12 -0 -0 -0 -0 -0 -0 -0 -7 -15 -13 -6 -14
-0 -0 -0 -0 -0 -169 -127 -140 -121 -100 -49 -32 -27 -39 -34 -29 -40 -65 -77 -27 -20 -29 -40 -53 -93 -93 -118 -51 -33 -67 -77 -66 -34 -2 -0 -0 -0 -0 -1 -2 -10 -7 -16
-0 -0 -0 -0 -0 -0 -0 -0 -104 -173 -90 -107 -51 -40 -36 -24 -43 -12 -96 -51 -32 -36 -47 -52 -51 -54 -45 -58 -86 -125 -67 -20 -33 -12 -0 -0 -0 -0 -0 -1 -4 -13 -19
-0 -0 -1 -0 -0 -0 -0 -0 -26 -130 -115 -159 -79 -62 -43 -33 -39 -97 -82 -49 -46 -63 -74 -84 -108 -137 -157 -161 -82 -92 -77 -127 -33 -41 -64 -50 -21 -2 -1 -0 -0 -0 -1
-0 -0 -0 -0 -0 -0 -0 -0 -0 -0 -82 -95 -123 -61 -64 -60 -57 -77 -95 -33 -22 -32 -58 -68 -155 -228 -216 -209 -159 -87 -47 -120 -75 -11 -32 -91 -5 -56 -11 -2 -0 -0 -0
-0 -0 -0 -0 -0 -0 -0 -0 -1 -1 -0 -0 -81 -100 -80 -97 -69 -94 -89 -87 -25 -16 -33 -56 -92 -152 -236 -259 -235 -172 -167 -64 -85 -48 -23 -75 -27 -37 -11 -7 -0 -0 -0
-0 -1 -0 -3 -1 -0 -0 -0 -0 -1 -0 -0 -7 -112 -84 -90 -79 -108 -127 -122 -68 -25 -12 -10 -36 -124 -196 -25 -210 -85 -93 -205 -78 -47 -21 -30 -76 -84 -51 -1 -5 -3 -2
-0 -0 -0 -0 -0 -0 -0 -0 -0 -0 -0 -2 -1 -9 -37 -59 -55 -78 -114 -102 -0 -71 -24 -4 -38 -4 -0 -0 -0 -0 -0 -110 -130 -52 -44 -39 -61 -104 -55 -6 -0 -0 -0
-0 -0 -0 -0 -0 -0 -0 -0 -0 -0 -0 -1 -0 -1 -1 -8 -16 -26 -22 -22 -1 -0 -0 -140 -132 -0 -178 -133 -138 -132 -120 -40 -25 -17 -26 -43 -55 -131 -77 -66 -13 -0 -0
-0 -0 -0 -0 -0 -0 -0 -0 -0 -0 -0 -0 -1 -0 -2 -4 -25 -15 -8 -8 -0 -1 -8 -18 -21 -29 -43 -53 -54 -90 -23 -5 -54 -82 -49 -48 -26 -49 -117 -67 -29 -16 -2
-0 -0 -0 -0 -0 -0 -0 -0 -0 -0 -0 -0 -0 -0 -33 -27 -53 -11 -20 -44 -0 -0 -0 -0 -0 -2 -5 -1 -29 -27 -21 -57 -91 -137 -63 -40 -38 -29 -36 -68 -50 -66 -14
-0 -0 -0 -0 -0 -0 -0 -0 -0 -0 -0 -0 -0 -0 -0 -1 -0 -0 -0 -0 -0 -0 -0 -7 -0 -1 -1 -6 -33 -37 -29 -29 -7 -6 -2 -20 -40 -41 -19 -22 -47 -57 -22
-0 -0 -0 -0 -0 -0 -0 -0 -0 -0 -0 -0 -59 -5 -10 -0 -0 -0 -0 -0 -0 -0 -0 -0 -0 -1 -2 -31 -50 -41 -18 -32 -11 -12 -7 -25 -18 -17 -8 -1 -17 -46 -81
-0 -0 -0 -0 -0 -0 -0 -0 -0 -0 -0 -0 -0 -0 -0 -0 -0 -0 -0 -0 -20 -0 -0 -0 -14 -3 -2 -10 -2 -2 -5 -3 -6 -13 -8 -2 -3 -1 -4 -4 -0 -40 -136
-0 -0 -0 -0 -0 -0 -0 -0 -0 -0 -0 -0 -0 -0 -0 -0 -5 -19 -12 -0 -10 -8 -3 -21 -24 -10 -1 -3 -1 -1 -3 -8 -16 -13 -7 -18 -9 -3 -0 -0 -0 -2 -51
-0 -0 -0 -0 -0 -0 -0 -0 -0 -0 -0 -0 -0 -0 -0 -0 -0 -0 -0 -0 -0 -0 -27 -17 -17 -8 -2 -1 -2 -5 -4 -59 -61 -20 -13 -1 -20 -10 -8 -1 -0 -4 -14
-0 -0 -0 -0 -0 -0 -0 -0 -0 -0 -0 -0 -0 -0 -0 -0 -0 -0 -0 -0 -0 -0 -0 -0 -0 -50 -6 -1 -2 -2 -3 -21 -31 -18 -9 -12 -14 -6 -14 -11 -6 -38 -22
-0 -0 -0 -0 -0 -0 -0 -0 -0 -0 -0 -0 -0 -0 -0 -0 -0 -0 -0 -0 -0 -0 -0 -0 -0 -0 -0 -0 -0 -1 -2 -1 -8 -18 -50 -45 -3 -10 -12 -9 -16 -21 -15
-0 -0 -0 -0 -0 -0 -0 -0 -0 -0 -0 -0 -0 -0 -0 -0 -0 -0 -0 -0 -0 -0 -0 -0 -0 -0 -0 -0 -0 -0 -0 -0 -0 -0 -50 -1 -5 -14 -9 -5 -1 -0 -1
-0 -0 -0 -0 -0 -0 -0 -0 -0 -0 -0 -0 -0 -0 -0 -0 -0 -0 -0 -0 -0 -0 -0 -0 -0 -0 -0 -0 -0 -0 -0 -0 -0 -0 -0 -0 -34 -1 -11 -7 -2 -1 -0
-0 -0 -0 -0 -0 -0 -0 -0 -0 -0 -0 -0 -0 -0 -0 -0 -0 -0 -0 -0 -0 -0 -0 -0 -0 -0 -0 -0 -0 -0 -0 -0 -0 -0 -0 -0 -0 -35 -4 -1 -1 -0 -0
Wind_Speed
25 22 20 18 20 21 21 23 21 20 19 16 16 17 15 13 12 11 9 7 6 2 3 7 12 19 23 21 28 32 30 31 38 35 34 32 33 31 28 27 26 27 27
25 22 21 22 21 22 22 22 23 22 20 19 20 21 21 20 16 13 11 9 6 9 10 4 4 15 16 22 24 27 30 30 36 38 35 34 35 33 31 30 29 26 25
28 26 25 24 24 23 22 22 23 22 22 22 23 23 23 24 23 21 19 17 13 16 13 12 9 5 6 26 22 28 29 31 32 36 35 32 34 31 32 31 31 29 26
27 26 25 24 24 22 25 26 22 21 21 21 22 23 24 24 24 25 24 22 23 24 23 16 12 11 10 16 26 30 29 30 33 33 35 33 31 29 28 30 29 27 27
29 27 27 26 26 28 29 28 27 27 25 24 24 25 25 25 25 25 25 26 25 28 25 23 24 20 18 22 26 32 34 32 33 35 36 34 30 29 29 28 30 29 26
35 35 33 32 28 24 20 23 28 28 27 27 28 28 29 30 28 24 24 26 26 26 27 26 25 25 27 28 28 26 35 36 34 35 35 35 33 30 31 29 28 27 29
37 37 35 39 38 35 30 22 19 22 25 28 28 30 31 29 27 26 25 25 26 26 26 27 27 26 26 28 27 29 30 35 37 34 35 36 37 33 32 29 28 27 27
36 35 35 35 33 32 32 30 27 25 21 24 24 29 29 28 26 25 25 26 28 29 28 28 28 29 27 28 30 31 32 31 29 27 34 37 38 36 33 32 32 30 31
36 36 37 37 36 34 32 28 26 26 25 22 21 24 30 33 29 27 24 25 29 31 31 31 31 32 30 29 32 34 34 33 29 29 34 39 41 42 37 33 33 31 32
37 37 37 37 36 37 35 32 29 26 25 24 23 26 31 34 35 33 29 30 31 34 34 34 34 34 33 32 33 35 39 35 33 34 32 33 34 40 37 34 35 35 32
36 38 38 38 39 38 38 31 27 27 26 24 25 25 34 36 36 34 34 35 36 37 39 39 37 35 37 36 36 38 40 37 36 35 35 33 32 31 34 32 34 36 36
33 35 39 37 35 36 36 34 31 26 26 25 26 31 32 34 37 40 40 39 38 40 45 43 41 38 38 40 38 39 42 41 38 37 37 36 34 33 34 34 32 33 37
36 38 41 41 35 34 32 33 32 31 26 25 25 27 32 33 37 39 42 43 43 43 44 45 43 41 40 40 41 42 40 39 40 39 41 39 35 31 32 35 30 31 38
38 36 35 36 36 32 29 28 29 29 28 23 22 23 28 29 31 35 38 37 38 40 41 44 44 42 38 39 38 36 35 34 38 42 42 41 36 34 34 34 35 33 36
36 35 34 35 35 33 30 26 24 24 21 22 25 24 25 26 30 33 33 34 34 35 36 34 35 37 37 35 33 31 31 31 33 40 43 43 41 36 36 32 35 34 38
36 36 37 38 37 33 31 30 23 17 16 21 23 22 22 34 40 42 40 40 38 34 34 36 36 36 36 34 30 29 27 29 31 32 38 41 41 40 36 32 32 31 36
37 37 38 38 38 39 34 31 29 29 25 22 22 19 8 10 34 37 39 34 32 31 33 34 35 36 34 34 34 34 33 32 29 32 35 36 39 40 38 35 36 33 34
38 37 39 38 37 37 37 35 32 29 29 29 27 26 19 28 32 30 27 21 24 26 29 31 34 34 34 34 35 36 36 36 34 33 34 35 36 38 37 37 37 36 34
38 39 39 38 37 37 36 35 34 33 32 32 31 30 32 33 28 23 17 19 19 22 26 29 32 35 34 33 33 34 34 35 34 36 35 33 34 36 38 37 39 38 37
35 38 38 38 39 39 38 38 37 33 33 32 31 32 33 30 27 25 20 20 23 28 30 30 28 32 31 32 32 34 35 35 36 36 36 37 34 35 38 37 35 34 36
35 36 37 37 37 38 39 39 39 38 35 33 33 33 33 29 28 27 26 25 25 26 28 25 29 30 29 30 34 35 36 37 36 35 36 36 35 36 34 36 36 35 34
35 36 36 37 37 38 37 37 38 38 37 37 35 33 32 29 28 28 28 28 28 27 28 28 28 29 31 32 32 33 34 36 35 34 34 35 36 36 37 36 36 39 35
34 35 36 36 37 37 37 37 37 38 37 37 36 35 33 31 30 28 29 30 30 29 29 29 29 29 30 30 30 32 34 35 35 34 35 37 36 35 37 38 37 38 39
34 35 35 35 36 36 37 37 37 37 37 36 35 35 33 32 32 29 29 30 29 28 28 27 26 26 29 30 31 33 34 33 34 35 38 38 38 38 37 38 38 37 38
34 35 35 35 35 35 36 36 37 37 37 36 36 35 34 33 32 31 31 30 28 28 26 25 25 25 25 26 27 30 34 39 41 40 40 40 42 43 40 38 36 35 35
34 34 34 34 34 34 35 35 35 36 36 36 36 36 35 35 34 33 32 31 31 29 29 29 29 29 29 29 30 33 35 36 38 40 40 40 41 43 42 39 37 34 33
Wind_Direction
348 350 353 354 349 344 339 333 330 326 327 323 320 319 318 314 309 300 296 316 325 313 293 299 299 290 287 287 277 270 273 272 262 271 271 271 268 272 275 276 280 275 274
349 353 354 350 346 341 339 337 331 327 325 320 316 312 310 311 310 299 291 289 292 314 311 292 308 297 296 288 285 281 277 276 269 268 273 271 268 269 270 272 273 276 280
343 344 346 344 339 335 339 341 334 329 323 318 315 312 310 306 304 302 296 290 287 299 304 292 278 272 299 289 294 286 282 280 276 272 276 276 272 273 269 270 271 276 281
343 342 338 338 337 333 326 326 333 329 325 323 319 315 312 309 303 300 298 290 285 290 298 290 282 279 276 301 292 287 287 283 278 276 274 275 274 275 275 273 275 278 278
338 334 332 327 324 321 317 318 319 318 317 316 313 311 309 308 306 301 296 294 291 288 291 291 291 292 291 296 295 283 280 284 280 276 275 275 273 272 271 274 273 276 280
329 327 330 324 324 323 321 319 317 314 313 311 307 307 304 301 300 300 297 293 291 289 289 290 292 293 293 293 293 298 279 277 280 278 278 274 271 270 270 273 273 274 275
327 325 327 314 313 315 318 318 314 311 309 307 305 304 303 301 298 294 294 292 291 290 290 290 289 291 292 291 293 292 291 279 273 280 279 275 271 270 270 271 271 271 272
329 328 326 323 323 322 320 319 318 316 308 302 298 300 301 299 298 294 291 290 289 288 287 288 288 289 291 288 288 289 288 290 291 292 282 278 274 272 270 270 269 270 271
332 330 325 325 322 321 318 317 315 314 312 306 295 293 293 290 292 293 292 289 286 285 286 285 285 285 287 288 285 284 284 286 291 290 286 279 271 267 269 270 267 267 266
333 330 328 327 325 321 321 321 317 312 310 309 302 295 291 287 286 286 288 288 286 283 283 283 283 283 284 284 283 282 278 283 286 285 291 294 285 269 269 267 265 263 265
338 331 329 327 323 320 319 321 321 319 312 304 299 293 291 287 285 283 283 284 284 282 280 280 281 282 282 282 281 278 276 282 283 283 285 290 296 286 275 274 263 261 262
342 337 330 331 331 325 321 319 320 317 316 310 302 296 290 290 285 282 281 281 281 279 275 276 279 281 281 280 279 278 275 276 277 278 280 284 288 289 277 276 267 264 262
343 339 333 330 333 330 328 324 317 317 315 315 311 304 297 294 290 286 282 280 278 277 274 272 274 279 280 280 277 276 277 274 272 273 274 277 283 290 278 273 282 272 264
345 347 348 344 341 340 337 331 326 317 315 315 316 311 306 304 301 293 287 284 280 278 275 272 271 275 278 278 279 279 277 276 271 269 271 274 279 281 278 276 280 277 268
351 353 356 355 354 352 348 343 334 326 315 314 315 313 311 307 301 297 295 290 285 282 279 276 273 273 276 278 278 278 279 277 276 271 269 270 272 276 276 278 278 282 269
354 355 355 353 356 358 359 359 359 350 336 323 320 318 315 299 290 287 288 287 283 280 278 274 273 274 275 274 275 278 279 280 279 280 273 270 268 270 273 275 273 281 273
355 355 354 354 355 356 3 5 9 0 355 349 339 337 321 310 305 299 285 289 283 277 276 276 274 274 276 275 275 275 276 279 281 281 278 275 269 267 267 269 267 272 272
1 1 359 356 356 357 360 2 2 3 356 353 351 341 349 324 309 308 304 304 289 283 279 277 276 276 277 278 276 273 274 276 278 279 279 278 272 265 266 265 264 267 271
2 3 3 3 3 1 1 358 357 354 349 343 339 338 323 310 322 330 334 315 306 294 288 282 279 277 279 281 277 274 275 276 277 276 275 277 274 268 266 268 266 266 266
6 4 4 6 5 4 4 3 358 353 349 344 342 333 322 328 332 330 336 330 313 298 290 286 289 278 279 279 279 277 276 277 277 276 275 272 274 272 268 267 269 270 267
5 5 2 5 5 3 4 5 6 6 357 345 340 335 321 329 325 324 323 320 318 310 303 298 288 286 285 284 278 276 276 275 277 278 277 272 271 269 270 269 269 269 271
5 5 4 4 3 2 4 7 7 6 5 1 350 341 331 332 327 320 318 318 318 321 306 311 297 291 283 281 281 279 280 277 278 278 278 275 271 271 268 269 269 268 270
7 6 5 5 5 6 5 4 2 2 2 360 356 351 348 343 335 329 323 318 316 315 314 308 295 294 289 286 289 288 284 281 280 279 276 275 274 272 269 269 270 269 268
6 5 3 3 5 6 5 4 2 359 1 1 360 352 347 344 344 337 334 327 325 316 321 317 312 305 298 297 297 293 289 290 288 282 278 275 272 273 272 270 271 270 268
8 5 3 3 5 4 4 5 5 5 2 358 359 355 350 343 337 334 337 335 331 331 327 328 329 322 322 318 315 310 299 287 282 281 279 276 270 268 270 271 269 270 270
10 8 8 7 6 5 4 4 3 4 4 3 359 358 351 346 341 334 331 330 335 329 334 331 328 319 317 318 318 311 309 304 294 285 282 278 274 269 267 268 267 268 270